Cloud_Cover
100 32 5 5 33 100 100 100 5 30 71 24 78 94 100 100 100 100 100 100 63 6 29 76 60 92 79 20 5 4 5 5 5 3 0 0 0 0 0 0 0 0 0 0 2 5 5 4 0
100 100 6 5 79 100 100 100 100 49 97 11 99 80 100 100 100 100 100 100 100 39 80 100 100 100 100 100 80 2 96 42 5 5 0 1 0 0 0 0 0 10 8 0 5 0 1 5 3
100 100 86 5 5 100 88 69 100 21 2 38 46 34 58 100 100 100 100 100 100 53 5 77 85 78 62 100 99 5 67 5 31 63 37 2 4 0 1 4 6 7 0 0 4 4 0 5 5
100 100 100 100 100 99 100 94 98 23 5 2 91 2 29 100 100 100 100 100 97 41 100 81 100 100 100 50 100 100 98 73 12 5 5 5 11 5 5 5 5 5 2 0 5 5 5 58 93
100 100 100 100 100 90 90 49 5 46 11 75 35 4 2 99 100 100 100 100 86 65 100 100 100 100 100 5 68 59 90 47 19 62 10 1 5 5 39 68 24 6 5 4 5 55 43 31 51
100 100 100 100 100 99 97 71 90 11 84 31 67 14 1 4 25 100 100 32 5 22 56 23 27 7 8 8 14 9 82 84 48 31 89 16 26 5 88 37 5 5 39 100 100 100 69 100 78
100 100 100 100 64 74 100 92 70 4 89 71 6 98 3 6 0 45 100 100 66 42 7 5 5 5 5 5 4 1 5 5 60 92 98 74 13 5 5 6 26 72 100 53 31 5 5 40 48
97 64 100 100 100 100 98 100 7 4 1 64 1 5 13 4 0 0 8 53 97 100 100 100 91 7 1 4 4 0 0 0 5 75 46 99 100 100 100 100 100 100 91 18 26 40 5 32 9
100 92 100 100 100 100 100 92 17 1 4 5 5 0 6 14 2 0 4 13 79 2 1 59 100 100 100 29 8 2 4 0 0 1 2 5 56 81 71 87 94 82 13 1 0 0 0 0 0
100 100 100 100 100 100 97 99 40 95 11 50 3 0 1 5 7 5 2 5 39 48 26 49 0 28 33 62 1 3 5 5 5 5 5 5 1 0 2 0 0 0 0 0 0 0 0 0 0
98 100 100 100 100 100 82 100 100 100 80 8 5 0 1 71 7 33 61 5 100 100 100 94 56 0 10 4 0 0 0 0 0 0 1 0 0 0 0 0 0 0 0 0 0 53 0 0 0
100 84 83 100 100 100 100 100 100 100 98 74 5 5 5 100 78 5 5 5 4 0 0 0 0 0 0 37 51 4 0 4 5 3 0 0 46 88 51 4 15 58 10 96 96 0 4 12 33
100 100 87 100 100 100 100 100 100 100 100 100 20 58 93 100 56 21 11 5 4 0 0 3 0 2 3 0 54 29 0 100 7 81 78 4 0 16 0 76 98 69 90 78 31 8 45 4 3
100 99 90 100 100 100 100 100 99 100 100 100 88 100 100 100 87 81 39 6 5 0 5 82 42 5 5 5 0 4 0 1 18 59 3 6 37 0 2 94 100 83 68 73 20 5 5 7 5
68 100 94 100 100 100 100 100 100 60 62 100 100 99 98 100 95 96 47 40 100 57 5 19 97 37 97 98 32 1 0 6 16 98 18 100 100 100 79 43 8 48 5 5 10 42 59 51 20
19 52 12 100 100 88 100 100 100 50 100 100 100 100 100 100 100 100 100 100 100 100 12 50 20 4 5 10 6 0 30 46 10 1 0 90 100 93 53 100 44 10 2 3 0 3 2 0 1
0 0 2 100 100 34 100 100 56 100 100 69 98 100 100 100 100 100 100 100 100 92 92 5 56 0 0 3 2 4 2 0 0 0 1 4 6 12 12 2 1 0 0 0 0 0 0 0 0
5 73 3 83 68 47 75 100 66 17 100 100 100 100 100 100 100 70 100 98 100 100 76 13 0 0 0 2 0 50 0 0 100 52 0 20 9 0 0 2 1 0 0 0 0 0 0 0 0
34 0 4 32 6 57 96 100 100 100 100 100 100 100 100 100 100 100 100 77 26 81 37 97 0 0 0 0 0 61 0 0 0 0 0 0 0 0 0 0 0 0 0 0 0 0 0 0 0
4 82 90 100 48 0 73 100 98 22 23 98 100 100 100 99 100 100 46 56 28 79 93 5 0 0 0 0 0 10 60 30 0 0 0 0 0 0 0 0 0 0 0 0 0 0 0 0 0
1 51 97 2 0 2 0 0 0 3 9 100 100 100 98 6 1 2 30 85 100 100 52 0 30 19 0 8 9 0 0 1 0 0 0 0 0 0 0 0 0 0 0 0 0 0 0 0 0
0 0 0 0 0 0 0 0 0 73 97 5 5 4 2 28 98 95 19 4 0 0 0 0 0 0 6 55 90 5 38 10 0 0 0 3 1 0 0 0 0 0 0 0 0 0 0 0 0
0 0 0 0 0 0 0 0 0 18 39 3 6 8 3 3 7 97 84 0 0 0 0 2 5 2 0 0 0 0 86 92 14 9 0 0 0 0 0 0 0 0 0 0 0 0 0 0 0
0 0 0 0 0 0 1 0 14 100 27 95 29 5 71 63 8 46 30 3 3 3 4 5 5 5 5 5 2 0 0 0 0 0 0 0 0 0 0 0 0 0 0 0 0 0 0 0 0
1 0 0 0 3 48 25 13 82 100 57 5 4 2 71 45 63 66 65 91 97 72 63 25 5 1 0 0 0 0 0 0 2 0 0 0 0 0 0 0 0 0 0 0 0 0 0 0 0
0 0 0 2 3 17 5 24 98 100 50 5 5 21 48 5 40 11 68 66 52 98 52 74 100 29 0 0 0 0 0 2 2 2 0 0 0 4 0 0 0 0 0 0 0 0 0 0 0
3 3 1 0 0 0 0 1 84 100 19 3 7 4 8 5 14 5 5 61 79 36 5 5 7 58 42 50 5 2 2 0 4 5 5 6 52 3 0 0 0 0 0 0 0 0 0 0 0
0 0 0 0 0 0 0 3 95 95 100 83 96 93 82 40 29 3 13 15 16 63 85 100 100 73 2 71 80 41 99 76 45 70 100 100 94 15 4 7 9 5 2 0 0 0 0 0 0
28 2 2 4 12 4 4 0 25 70 56 85 100 100 81 82 100 77 36 58 5 2 1 0 7 18 81 100 93 100 91 91 100 84 42 98 97 98 99 100 5 0 0 0 0 0 0 0 1
0 0 0 0 0 5 3 0 0 48 6 90 70 5 5 5 5 5 2 2 2 1 0 0 7 47 82 87 5 11 43 91 92 100 39 35 85 100 99 92 8 0 2 1 0 0 2 6 74